Location: Esp�n
(42.4593°N, 0.2047°W)
Time: 14:23:54
(UTC+00:00)

X-37B - Visible Passes

Search period start: 24 July 2021 00:00
Search period end: 03 August 2021 00:00
Orbit: 383 x 392 km, 45.0° (Epoch: 01 July)

Date Brightness Start Highest point End Pass type
(mag) Time Alt. Az. Time Alt. Az. Time Alt. Az.
30 Jul 2.9 03:50:48 10° S 03:52:54 16° SE 03:54:59 10° ESE visible
01 Aug 2.0 03:31:15 20° S 03:32:35 28° SSE 03:35:24 10° E visible
02 Aug 3.1 02:35:26 15° ESE 02:35:26 15° ESE 02:36:32 10° ESE visible
02 Aug 0.6 04:07:42 11° WSW 04:10:41 78° SSE 04:13:54 10° ENE visible
